Location: Guferjoch
(46.7462°N, 8.4506°E)
Time: 23:54:34
(UTC+00:00)

Okean 2 - Pass Details

Date: 14 July 2020
Orbit: 559 x 578 km, 82.5° (Epoch: 14 August)

Event Time Altitude Azimuth Distance (km) Brightness Sun altitude
Rises 02:31:55 0° 354° (N) 2,766 7.6 -10.5°
Reaches altitude 10° 02:34:08 10° 358° (N) 1,863 6.7 -10.3°
Maximum altitude 02:38:11 58° 78° (ENE) 658 4.0 -9.8°
Drops below altitude 10° 02:42:11 10° 159° (SSE) 1,843 5.8 -9.3°
Sets 02:44:22 0° 163° (SSE) 2,733 6.6 -9.1°
